Weather History for Port Angeles, WA

Change the Weather History Date:

Thursday, August 15, 2013

  Actual Average Record
Temperature  
Mean Temperature 62 °F -  
Max Temperature 66 °F 68 °F 88 °F (2010)
Min Temperature 55 °F 51 °F 41 °F (1953)
Degree Days  
Heating Degree Days 4    
Growing Degree Days 12 (Base 50)    
Moisture  
Dew Point 58 °F    
Average Humidity 89    
Maximum Humidity 97    
Minimum Humidity 75    
Precipitation  
Precipitation 0.02 in - - ()
Sea Level Pressure  
Sea Level Pressure 29.96 in    
Wind  
Wind Speed 2 mph (WNW)    
Max Wind Speed 6 mph    
Max Gust Speed -    
Visibility 10 miles    
Events Rain    
Averages and records for this station are not official NWS values.
T = Trace of Precipitation, MM = Missing Value Source: NWS Daily Summary

Daily Weather History Graph

Daily Weather History Graph

Search for Another Location

Airport:

Trip Planner

Search our weather history database for the weather conditions in past years. The results will help you decide how hot, cold, wet, or windy it might be!

Date:

Astronomy

Aug. 15, 2013 Rise Set
Actual Time 6:09 AM PDT 8:26 PM PDT
Civil Twilight 5:34 AM PDT 9:00 PM PDT
Nautical Twilight 4:51 AM PDT 9:43 PM PDT
Astronomical Twilight 4:02 AM PDT 10:31 PM PDT
Moon 3:58 PM PDT (8/15) 12:15 AM PDT (8/15)
Length of Visible Light 15h 26m
Length of Day
14h 17m
Waxing Gibbous, 65% of the Moon is Illuminated
Aug 15
Waxing Gibbous
Aug 20
Full
Aug 28
Last Quarter
Sep 5
New
Sep 12
First Quarter

Hourly Weather History & Observations

Time (PDT) Temp. Dew Point Humidity Pressure Visibility Wind Dir Wind Speed Gust Speed Precip Events Conditions
12:53 AM 57.9 °F 55.0 °F 90% 29.94 in 5.0 mi Calm Calm - N/A   Clear
1:29 AM 57.0 °F 55.0 °F 93% 29.94 in 6.0 mi Calm Calm - N/A   Mostly Cloudy
1:53 AM 57.9 °F 57.0 °F 97% 29.94 in 8.0 mi West 3.5 mph - N/A   Overcast
2:02 AM 60.1 °F 57.0 °F 90% 29.93 in 10.0 mi West 4.6 mph - N/A   Overcast
2:24 AM 59.0 °F 57.0 °F 93% 29.93 in 10.0 mi Calm Calm - N/A   Partly Cloudy
2:53 AM 57.9 °F 57.0 °F 97% 29.93 in 10.0 mi Calm Calm - N/A   Scattered Clouds
3:38 AM 57.9 °F 57.0 °F 97% 29.94 in 10.0 mi WSW 3.5 mph - N/A   Mostly Cloudy
3:53 AM 57.9 °F 55.9 °F 93% 29.94 in 10.0 mi SSW 4.6 mph - N/A   Overcast
4:16 AM 59.0 °F 57.0 °F 93% 29.94 in 10.0 mi SW 3.5 mph - N/A   Overcast
4:41 AM 59.0 °F 57.0 °F 93% 29.94 in 10.0 mi WSW 3.5 mph - N/A   Overcast
4:53 AM 59.0 °F 57.0 °F 93% 29.94 in 10.0 mi West 5.8 mph - N/A   Overcast
5:53 AM 61.0 °F 59.0 °F 93% 29.94 in 10.0 mi West 3.5 mph - N/A   Overcast
6:06 AM 61.0 °F 59.0 °F 93% 29.93 in 10.0 mi West 4.6 mph - N/A   Overcast
6:53 AM 61.0 °F 59.0 °F 93% 29.94 in 10.0 mi WSW 5.8 mph - N/A   Overcast
7:53 AM 62.1 °F 60.1 °F 93% 29.95 in 10.0 mi West 3.5 mph - N/A   Overcast
8:53 AM 63.0 °F 60.1 °F 90% 29.96 in 10.0 mi WNW 4.6 mph - N/A   Overcast
9:35 AM 63.0 °F 60.1 °F 90% 29.96 in 10.0 mi West 4.6 mph - N/A   Overcast
9:53 AM 64.0 °F 60.1 °F 87% 29.96 in 10.0 mi WNW 4.6 mph - N/A   Overcast
10:07 AM 64.0 °F 60.1 °F 87% 29.96 in 10.0 mi WNW 4.6 mph - N/A   Overcast
10:18 AM 64.0 °F 60.1 °F 87% 29.96 in 10.0 mi West 3.5 mph - N/A   Overcast
10:53 AM 63.0 °F 59.0 °F 87% 29.97 in 10.0 mi North 3.5 mph - N/A   Overcast
11:53 AM 64.9 °F 59.0 °F 81% 29.97 in 10.0 mi NW 3.5 mph - N/A   Overcast
12:37 PM 66.0 °F 59.0 °F 78% 29.97 in 10.0 mi North 3.5 mph - N/A   Mostly Cloudy
12:53 PM 66.0 °F 57.9 °F 75% 29.98 in 10.0 mi North 3.5 mph - N/A   Mostly Cloudy
1:53 PM 66.0 °F 57.9 °F 75% 29.99 in 10.0 mi NNW 3.5 mph - N/A   Overcast
2:53 PM 63.0 °F 60.1 °F 90% 30.00 in 10.0 mi NW 3.5 mph - 0.01 in Rain Light Rain
3:53 PM 64.0 °F 61.0 °F 90% 30.00 in 10.0 mi Calm Calm - 0.01 in   Overcast
4:30 PM 63.0 °F 60.1 °F 90% 29.99 in 10.0 mi Calm Calm - N/A   Overcast
4:53 PM 64.0 °F 60.1 °F 87% 29.99 in 10.0 mi WNW 3.5 mph - N/A   Overcast
5:53 PM 63.0 °F 60.1 °F 90% 29.99 in 10.0 mi North 3.5 mph - N/A   Mostly Cloudy
6:36 PM 64.0 °F 60.1 °F 87% 29.98 in 10.0 mi Calm Calm - N/A   Mostly Cloudy
6:53 PM 66.0 °F 60.1 °F 81% 29.98 in 10.0 mi Calm Calm - N/A   Overcast
7:05 PM 66.0 °F 60.1 °F 81% 29.98 in - North - - N/A   Unknown
7:53 PM 62.1 °F 57.9 °F 86% 29.98 in 10.0 mi North 3.5 mph - N/A   Scattered Clouds
8:53 PM 57.9 °F 55.9 °F 93% 29.99 in 10.0 mi Calm Calm - N/A   Partly Cloudy
10:53 PM 57.9 °F 55.9 °F 93% 30.00 in 10.0 mi Calm Calm - N/A   Clear
11:53 PM 55.9 °F 54.0 °F 93% 29.99 in 10.0 mi South 3.5 mph - N/A   Clear